Weather observations for the past three days for
Chatham, Chatham Municipal Airport
Imperial (Metric)
Date Time (edt) Wind (mph) Vis. (mi.) Weather Sky Cond. Temperature (ºF) Relative Humidity Wind Chill (°F) Heat Index (°F) Pressure Precipitation (in)
Air Dwpt 6 hour altimeter (in) sea level (mb) 1 hr 3 hr 6 hr
Max. Min.
06 10:52 S 15 G 32 10.00 Fair CLR 61 54 78% 29.93 1013.5
06 09:52 SW 13 G 29 10.00 Fair CLR 61 53.1 75% 29.94 1014.0
06 08:52 SW 13 G 26 10.00 A Few Clouds FEW021 59 53.1 81% 29.94 1013.9
06 07:52 SW 8 G 18 10.00 Overcast OVC014 57.9 53.1 57.9 55 84% 29.96 1014.6
06 06:52 SW 8 10.00 Overcast OVC015 55.9 53.1 90% 29.96 1014.5
06 05:52 SW 9 G 18 9.00 Overcast OVC017 55 52 90% 29.96 1014.6
06 04:52 SW 8 G 17 10.00 Overcast OVC015 55 52 90% 29.96 1014.6
06 03:52 SW 9 G 21 10.00 Overcast FEW012 OVC017 55 52 90% 29.95 1014.4
06 02:52 SW 12 G 20 10.00 Overcast BKN011 OVC026 55 52 90% 29.95 1014.4
06 01:52 SW 10 G 20 9.00 Overcast BKN011 OVC023 55 53.1 55.9 55 93% 29.96 1014.6
06 00:52 SW 13 G 25 10.00 Overcast SCT007 OVC020 55 53.1 93% 29.97 1014.8
05 23:52 SW 14 G 23 10.00 Mostly Cloudy FEW009 BKN020 55 52 90% 29.96 1014.6
05 22:52 SW 13 G 28 10.00 Fair CLR 55 52 90% 29.96 1014.5
05 21:52 SW 9 10.00 Fair CLR 55 51.1 87% 29.96 1014.7
05 20:52 SW 14 G 26 10.00 Fair CLR 55 51.1 87% 29.92 1013.4
05 19:52 SW 10 G 28 10.00 Fair CLR 55 48.9 59 55 80% 29.91 1012.8
05 18:52 SW 14 G 24 10.00 Fair CLR 55.9 50 81% 29.9 1012.5
05 17:52 SW 13 G 29 10.00 Fair CLR 57 51.1 81% 29.89 1012.1
05 16:52 SW 14 G 30 10.00 Fair CLR 57.9 51.1 78% 29.88 1012.0
05 15:52 SW 16 G 29 10.00 Fair CLR 59 51.1 75% 29.89 1012.3
05 14:52 SW 14 G 28 10.00 Fair CLR 59 51.1 75% 29.9 1012.6
05 13:52 SW 15 G 28 10.00 Fair CLR 59 51.1 59 54 75% 29.92 1013.2
05 12:52 SW 12 G 26 10.00 Fair CLR 57.9 51.1 78% 29.93 1013.5
05 11:52 SW 13 G 25 10.00 Fair CLR 59 51.1 75% 29.94 1013.9
05 10:52 SW 12 G 28 10.00 Fair CLR 57 51.1 81% 29.93 1013.6
05 09:52 SW 14 G 29 10.00 Fair CLR 57 50 78% 29.92 1013.3
05 08:52 SW 9 G 22 10.00 Fair CLR 55.9 50 81% 29.93 1013.5
05 07:52 S 12 G 17 10.00 Fair CLR 54 48.9 54 51.1 83% 29.93 1013.5
05 06:52 S 9 G 17 10.00 Fair CLR 52 48 86% 29.92 1013.3
05 05:52 S 9 10.00 Fair CLR 51.1 48 89% 29.91 1013.0
05 04:52 SW 7 10.00 Fair CLR 51.1 48 89% 29.91 1012.8
05 03:52 SW 7 10.00 Fair CLR 51.1 48 89% 29.91 1013.0
05 02:52 SW 8 10.00 Fair CLR 52 48 86% 29.91 1012.9
05 01:52 SW 9 G 22 10.00 Fair CLR 52 48 52 51.1 86% 29.91 1013.0
05 00:52 SW 10 G 20 10.00 Fair CLR 52 48 86% 29.91 1013.0
04 23:52 SW 9 G 21 10.00 Fair CLR 52 46.9 83% 29.93 1013.5
04 22:52 SW 10 G 23 10.00 Fair CLR 52 46 80% 29.93 1013.6
04 21:52 SW 9 G 25 10.00 Fair CLR 52 45 77% 29.92 1013.4
04 20:52 SW 10 G 23 10.00 Fair CLR 52 46 80% 29.9 1012.6
04 19:52 SW 9 G 25 10.00 Fair CLR 52 44.1 57.9 52 75% 29.88 1011.8
04 18:52 SW 13 G 26 10.00 Fair CLR 53.1 44.1 72% 29.86 1011.2
04 16:52 SW 14 G 31 10.00 Fair CLR 55 44.1 67% 29.86 1011.3
04 15:52 SW 16 G 33 10.00 Fair CLR 57 45 64% 29.85 1010.9
04 14:52 SW 18 G 38 10.00 Fair CLR 57 46 67% 29.86 1011.2
04 13:52 SW 15 G 25 10.00 Fair CLR 57.9 46 59 53.1 65% 29.86 1011.2
04 12:52 SW 12 G 30 10.00 Fair CLR 57.9 46 65% 29.87 1011.4
04 11:52 SW 15 G 30 10.00 Fair CLR 59 42.1 54% 29.87 1011.5
04 10:52 SW 13 G 32 10.00 Fair CLR 57.9 39.9 51% 29.88 1012.0
04 09:52 SW 13 G 29 10.00 Fair CLR 55.9 42.1 60% 29.89 1012.2
04 08:52 SW 13 G 29 10.00 Fair CLR 55 42.1 62% 29.89 1012.3
04 07:52 SW 7 10.00 Partly Cloudy SCT100 53.1 44.1 53.1 46.9 72% 29.89 1012.4
04 06:52 SW 8 G 17 10.00 Overcast BKN070 OVC100 51.1 43 74% 29.89 1012.4
04 05:52 SW 6 10.00 Overcast BKN070 OVC100 50 43 77% 48 29.88 1011.9
04 04:52 SW 6 10.00 Overcast OVC070 48.9 39 69% 47 29.88 1011.8
04 03:52 SW 6 10.00 Overcast OVC090 48 37 66% 46 29.87 1011.7
04 02:52 W 6 10.00 Fair CLR 46.9 39.9 77% 45 29.86 1011.4
04 01:52 SW 8 10.00 A Few Clouds FEW080 48 35.1 50 41 61% 45 29.86 1011.3
04 00:52 W 3 10.00 Fair CLR 43 30.9 63% 29.86 1011.3
03 23:52 W 5 10.00 Fair CLR 44.1 28.9 55% 42 29.85 1011.1
03 22:52 W 3 10.00 Fair CLR 44.1 28 53% 29.84 1010.7
03 21:52 W 3 10.00 Fair CLR 45 30 56% 29.84 1010.6
03 20:52 Vrbl 5 10.00 Mostly Cloudy BKN075 48.9 28.9 46% 48 29.81 1009.6
03 19:52 W 6 10.00 Overcast OVC080 48.9 32 52 45 52% 47 29.78 1008.6
03 18:52 Vrbl 5 10.00 Overcast OVC080 48.9 35.1 59% 48 29.75 1007.5
03 17:52 Vrbl 5 10.00 Mostly Cloudy BKN070 51.1 33.1 50% 29.72 1006.6
03 16:52 Vrbl 6 10.00 Overcast SCT065 OVC090 51.1 36 56% 29.7 1005.9
03 15:52 N 9 10.00 Overcast FEW040 BKN049 OVC055 48 36 63% 44 29.69 1005.5
03 14:52 NW 12 G 24 10.00 Overcast OVC034 46 39.9 79% 41 29.69 1005.6
03 13:52 NW 9 G 23 10.00 Overcast FEW017 SCT026 OVC032 45 41 46.9 43 86% 41 29.68 1005.3 0.03 0.09
03 12:52 NW 14 G 25 3.00 Rain Fog/Mist FEW012 BKN020 OVC033 43 39.9 89% 37 29.67 1005.0 0.02
03 11:52 NW 8 8.00 Light Rain BKN012 BKN017 OVC021 45 42.1 90% 41 29.65 1004.2 0.03
Date Time (edt) Wind (mph) Vis. (mi.) Weather Sky Cond. Air Dwpt Max. Min. Relative Humidity Wind Chill (°F) Heat Index (°F) altimeter (in) sea level (mb) 1 hr 3 hr 6 hr
6 hour
Temperature (ºF) Pressure Precipitation (in)